Regional Weather Roundup
Issued by NWS

Home | Current Version | Previous Version | Graphics & Text | Print | Product List | Glossary On
Versions: 1 2 3 4 5 6 7 8 9 10 11 12 13 14 15 16 17 18 19 20 21 22 23 24 25 26 27 28 29 30 31 32 33 34 35 36 37 38 39 40 41 42 43 44 45 46 47 48 49 50
173
ASUS43 KTOP 240359
RWRKS

WEATHER ROUNDUP FOR KANSAS
NATIONAL WEATHER SERVICE GOODLAND KS
1100 PM CDT THU MAR 23 2017

NOTE:  "FAIR" INDICATES FEW OR NO CLOUDS BELOW 12,000 FEET WITH NO
SIGNIFICANT WEATHER AND/OR OBSTRUCTIONS TO VISIBILITY.

KSZ001>006-013>018-027>032-041>047-240500-
NORTHWEST KANSAS

CITY           SKY/WX    TMP DP  RH WIND       PRES   REMARKS
GOODLAND       CLOUDY    61  41  47 SE15      29.56F
HAYS             N/A     69  48  47 W18       29.69R
HILL CITY      RAIN      58  55  90 SW14G35   29.72R FOG
RUSSELL        CLOUDY    73  47  39 S23G32    29.64S
$$

KSZ061>065-074>080-084>089-240500-
SOUTHWEST KANSAS

CITY           SKY/WX    TMP DP  RH WIND       PRES   REMARKS
DODGE CITY     MOCLDY    69  45  41 S17       29.64F
ELKHART          N/A     58  48  69 S15         N/A
GARDEN CITY    LGT RAIN  63  53  70 S23G35    29.63R
GREAT BEND     CLOUDY    72  47  40 S21       29.67R
LIBERAL        CLOUDY    64  50  59 S10G18    29.61R
$$

KSZ066>073-081>083-090>101-240500-
SOUTHEAST KANSAS

CITY           SKY/WX    TMP DP  RH WIND       PRES   REMARKS
CHANUTE        CLOUDY    69  50  50 SE17      29.81R
COFFEYVILLE    CLOUDY    70  52  52 S13       29.82R
HUTCHINSON     CLOUDY    72  45  37 S23G35    29.68R
MEDICINE LODGE   N/A     71  44  37 S20G29    29.65R
NEWTON         CLOUDY    71  47  42 S30G39    29.70F
PARSONS        PTCLDY    72  51  47 S13G20    29.83R
WICHITA INTL   MOCLDY    72  48  42 S25G33    29.69F
WICHITA JABRA  PTCLDY    72  48  42 S23G37    29.71F
WINFIELD       PTCLDY    73  48  41 S23G32    29.74F
$$

KSZ007>012-019>026-033>040-048>060-102>105-240500-
NORTHEAST KANSAS

CITY           SKY/WX    TMP DP  RH WIND       PRES   REMARKS
CONCORDIA      MOCLDY    72  50  45 S16       29.68R
EMPORIA        MOCLDY    70  52  52 S21       29.74S
LAWRENCE       PTCLDY    69  48  47 SE16      29.77S
MANHATTAN      MOCLDY    71  52  50 S20G26    29.68F
OLATHE IND     PTCLDY    68  47  46 S21G28    29.79S
OLATHE EXE     CLOUDY    68  48  48 S18G26    29.80R
SALINA         CLOUDY    76  46  34 S21G30    29.68R
TOPEKA BILLARD CLOUDY    70  50  49 S21G28    29.74S
TOPEKA FORBES  CLOUDY    70  49  47 S18       29.75R
$$




USA.gov is the U.S. government's official web portal to all federal, state and local government web resources and services.